QPF
0.00 0.00 0.00 0.00 0.00 0.01 0.01 0.02 0.03 0.02 0.01 0.01 0.01 0.03 0.06 0.08 0.08 0.06 0.02 0.02 0.02 0.03 0.04 0.06 0.09 0.06 0.08 0.09 0.08 0.08 0.09 0.11 0.11 0.10 0.09 0.10 0.10 0.09 0.09 0.08 0.06 0.06 0.05 0.05
0.00 0.00 0.00 0.00 0.00 0.00 0.02 0.04 0.04 0.02 0.01 0.01 0.01 0.03 0.06 0.07 0.05 0.04 0.03 0.03 0.05 0.07 0.04 0.05 0.06 0.06 0.06 0.06 0.06 0.09 0.11 0.12 0.12 0.10 0.09 0.09 0.10 0.10 0.11 0.12 0.13 0.11 0.08 0.07
0.00 0.00 0.00 0.00 0.00 0.01 0.02 0.03 0.02 0.01 0.00 0.01 0.01 0.03 0.04 0.03 0.02 0.04 0.07 0.07 0.06 0.04 0.04 0.04 0.04 0.08 0.08 0.07 0.05 0.06 0.07 0.09 0.12 0.12 0.10 0.09 0.09 0.07 0.07 0.07 0.07 0.06 0.05 0.04
0.00 0.00 0.00 0.01 0.01 0.01 0.01 0.01 0.01 0.01 0.01 0.01 0.01 0.03 0.03 0.03 0.02 0.06 0.08 0.05 0.02 0.02 0.03 0.03 0.04 0.07 0.09 0.08 0.07 0.07 0.06 0.09 0.14 0.17 0.12 0.08 0.07 0.07 0.07 0.07 0.06 0.05 0.04 0.03
0.01 0.01 0.01 0.01 0.01 0.01 0.01 0.01 0.01 0.01 0.01 0.02 0.02 0.03 0.02 0.02 0.04 0.06 0.07 0.06 0.03 0.02 0.02 0.03 0.03 0.04 0.06 0.08 0.09 0.09 0.08 0.09 0.10 0.11 0.10 0.08 0.08 0.09 0.08 0.07 0.05 0.04 0.02 0.02
0.01 0.01 0.01 0.01 0.00 0.00 0.00 0.01 0.01 0.01 0.01 0.03 0.02 0.02 0.04 0.05 0.07 0.07 0.06 0.04 0.03 0.03 0.03 0.03 0.03 0.04 0.06 0.07 0.09 0.11 0.10 0.08 0.08 0.08 0.09 0.08 0.08 0.08 0.09 0.09 0.07 0.04 0.03 0.03
0.02 0.02 0.02 0.01 0.00 0.00 0.00 0.01 0.03 0.05 0.04 0.04 0.02 0.04 0.07 0.05 0.03 0.03 0.03 0.04 0.07 0.07 0.04 0.03 0.03 0.04 0.05 0.06 0.08 0.08 0.10 0.09 0.08 0.07 0.07 0.08 0.08 0.09 0.08 0.07 0.06 0.04 0.03 0.03
0.02 0.01 0.01 0.01 0.00 0.01 0.01 0.01 0.05 0.07 0.05 0.03 0.03 0.04 0.04 0.02 0.01 0.01 0.02 0.06 0.11 0.07 0.04 0.05 0.04 0.03 0.04 0.05 0.05 0.05 0.07 0.08 0.08 0.06 0.06 0.06 0.06 0.06 0.05 0.05 0.04 0.03 0.02 0.01
0.03 0.02 0.00 0.00 0.00 0.00 0.01 0.01 0.02 0.06 0.05 0.04 0.04 0.03 0.03 0.01 0.02 0.01 0.03 0.05 0.05 0.04 0.04 0.05 0.04 0.02 0.03 0.05 0.05 0.06 0.06 0.07 0.06 0.05 0.04 0.04 0.05 0.05 0.05 0.06 0.05 0.03 0.01 0.01
0.01 0.01 0.01 0.00 0.00 0.00 0.00 0.00 0.01 0.05 0.06 0.05 0.04 0.03 0.04 0.03 0.03 0.04 0.03 0.02 0.03 0.03 0.04 0.04 0.04 0.03 0.03 0.07 0.10 0.13 0.11 0.08 0.05 0.04 0.03 0.03 0.04 0.04 0.04 0.05 0.06 0.04 0.01 0.01
0.00 0.00 0.00 0.00 0.00 0.01 0.01 0.00 0.01 0.02 0.03 0.05 0.07 0.06 0.04 0.03 0.02 0.03 0.03 0.04 0.04 0.05 0.04 0.05 0.04 0.03 0.03 0.05 0.06 0.06 0.06 0.04 0.03 0.04 0.04 0.04 0.03 0.03 0.03 0.05 0.05 0.03 0.01 0.01
0.00 0.01 0.01 0.01 0.00 0.00 0.01 0.01 0.01 0.02 0.02 0.03 0.06 0.09 0.03 0.02 0.02 0.04 0.06 0.05 0.03 0.04 0.04 0.05 0.05 0.04 0.04 0.04 0.03 0.03 0.03 0.04 0.04 0.05 0.06 0.05 0.04 0.04 0.04 0.05 0.05 0.04 0.03 0.02
0.00 0.01 0.03 0.05 0.03 0.01 0.01 0.01 0.01 0.00 0.01 0.01 0.05 0.08 0.03 0.02 0.03 0.06 0.05 0.03 0.02 0.02 0.03 0.05 0.05 0.05 0.05 0.05 0.05 0.04 0.05 0.05 0.05 0.05 0.07 0.07 0.06 0.05 0.04 0.04 0.04 0.05 0.04 0.03
0.00 0.01 0.03 0.05 0.03 0.01 0.00 0.00 0.00 0.00 0.01 0.03 0.04 0.05 0.05 0.04 0.06 0.05 0.04 0.03 0.02 0.02 0.03 0.03 0.04 0.05 0.06 0.06 0.06 0.04 0.04 0.04 0.04 0.04 0.05 0.06 0.06 0.06 0.04 0.04 0.04 0.03 0.03 0.02
0.01 0.02 0.01 0.01 0.01 0.00 0.00 0.01 0.01 0.01 0.01 0.02 0.04 0.05 0.05 0.04 0.06 0.07 0.05 0.03 0.03 0.03 0.03 0.03 0.04 0.06 0.06 0.05 0.07 0.04 0.03 0.03 0.03 0.03 0.05 0.05 0.06 0.06 0.04 0.03 0.03 0.02 0.02 0.02
0.00 0.01 0.01 0.01 0.01 0.01 0.02 0.02 0.01 0.01 0.02 0.02 0.03 0.05 0.03 0.06 0.10 0.08 0.05 0.03 0.03 0.03 0.03 0.04 0.05 0.06 0.07 0.06 0.07 0.05 0.03 0.03 0.02 0.03 0.05 0.05 0.06 0.05 0.04 0.04 0.03 0.03 0.02 0.03
0.02 0.03 0.02 0.01 0.01 0.02 0.03 0.02 0.01 0.02 0.02 0.02 0.03 0.03 0.02 0.04 0.05 0.06 0.06 0.03 0.02 0.03 0.03 0.05 0.06 0.08 0.08 0.08 0.06 0.05 0.05 0.04 0.03 0.04 0.05 0.05 0.05 0.04 0.05 0.04 0.03 0.03 0.02 0.03
0.01 0.03 0.03 0.03 0.04 0.05 0.04 0.01 0.01 0.02 0.02 0.01 0.02 0.02 0.02 0.02 0.03 0.04 0.05 0.04 0.02 0.02 0.03 0.04 0.07 0.09 0.09 0.08 0.07 0.07 0.05 0.06 0.05 0.05 0.04 0.04 0.04 0.05 0.05 0.05 0.04 0.03 0.03 0.03
0.02 0.04 0.04 0.04 0.06 0.05 0.03 0.02 0.02 0.03 0.03 0.03 0.02 0.01 0.01 0.02 0.04 0.05 0.03 0.02 0.02 0.02 0.02 0.03 0.05 0.07 0.10 0.10 0.09 0.09 0.05 0.04 0.05 0.04 0.03 0.03 0.03 0.05 0.05 0.05 0.04 0.04 0.03 0.03
0.02 0.04 0.06 0.05 0.07 0.07 0.05 0.03 0.02 0.03 0.06 0.04 0.02 0.02 0.02 0.03 0.05 0.05 0.05 0.04 0.02 0.02 0.03 0.03 0.04 0.06 0.09 0.09 0.09 0.08 0.06 0.04 0.04 0.03 0.02 0.03 0.03 0.04 0.05 0.05 0.05 0.04 0.03 0.03
0.05 0.06 0.06 0.05 0.06 0.04 0.03 0.03 0.03 0.06 0.08 0.06 0.03 0.02 0.02 0.03 0.04 0.04 0.03 0.02 0.02 0.04 0.05 0.04 0.05 0.05 0.06 0.06 0.07 0.07 0.05 0.04 0.03 0.02 0.02 0.03 0.04 0.04 0.05 0.04 0.04 0.03 0.03 0.03
0.03 0.03 0.03 0.04 0.07 0.05 0.02 0.02 0.03 0.05 0.04 0.03 0.03 0.04 0.03 0.02 0.02 0.02 0.02 0.02 0.03 0.04 0.06 0.07 0.06 0.05 0.06 0.07 0.07 0.06 0.06 0.04 0.03 0.02 0.02 0.03 0.04 0.03 0.03 0.04 0.04 0.04 0.03 0.02
0.02 0.02 0.03 0.04 0.05 0.03 0.01 0.01 0.02 0.02 0.02 0.02 0.02 0.02 0.01 0.01 0.01 0.02 0.02 0.02 0.02 0.03 0.05 0.07 0.07 0.07 0.07 0.05 0.05 0.05 0.04 0.04 0.04 0.03 0.02 0.03 0.03 0.03 0.02 0.03 0.04 0.04 0.04 0.03
0.01 0.02 0.02 0.03 0.02 0.02 0.01 0.01 0.01 0.01 0.01 0.01 0.02 0.01 0.01 0.01 0.01 0.02 0.03 0.02 0.02 0.02 0.04 0.06 0.07 0.06 0.04 0.03 0.04 0.04 0.04 0.04 0.04 0.03 0.03 0.04 0.03 0.02 0.02 0.03 0.04 0.06 0.05 0.03
0.01 0.01 0.01 0.02 0.02 0.04 0.03 0.02 0.01 0.01 0.01 0.02 0.02 0.02 0.01 0.01 0.01 0.02 0.03 0.02 0.01 0.01 0.03 0.04 0.05 0.04 0.03 0.03 0.03 0.04 0.04 0.04 0.05 0.05 0.03 0.03 0.03 0.02 0.03 0.02 0.02 0.02 0.02 0.01
0.00 0.00 0.02 0.03 0.02 0.04 0.04 0.01 0.01 0.01 0.02 0.02 0.02 0.02 0.02 0.01 0.01 0.01 0.02 0.02 0.02 0.02 0.02 0.03 0.03 0.03 0.03 0.03 0.02 0.03 0.05 0.05 0.05 0.05 0.03 0.03 0.03 0.03 0.03 0.02 0.02 0.02 0.02 0.01
MSLP
1008.09 1008.63 1009.06 1009.39 1009.62 1009.76 1009.82 1009.82 1009.75 1009.61 1009.38 1009.07 1008.68 1008.23 1007.75 1007.29 1006.87 1006.53 1006.27 1006.08 1005.95 1005.85 1005.74 1005.63 1005.50 1005.38 1005.30 1005.29 1005.39 1005.62 1005.98 1006.45 1006.98 1007.53 1008.04 1008.48 1008.82 1009.05 1009.18 1009.23 1009.25 1009.25 1009.26 1009.30
1008.58 1009.06 1009.43 1009.69 1009.86 1009.94 1009.98 1009.97 1009.91 1009.79 1009.61 1009.35 1009.02 1008.63 1008.21 1007.79 1007.42 1007.11 1006.87 1006.70 1006.56 1006.43 1006.29 1006.12 1005.91 1005.71 1005.55 1005.47 1005.51 1005.70 1006.04 1006.51 1007.06 1007.63 1008.15 1008.59 1008.90 1009.08 1009.14 1009.12 1009.06 1008.99 1008.95 1008.95
1009.00 1009.40 1009.68 1009.86 1009.97 1010.02 1010.05 1010.05 1010.04 1009.99 1009.88 1009.70 1009.45 1009.13 1008.77 1008.42 1008.09 1007.82 1007.61 1007.45 1007.32 1007.18 1007.02 1006.80 1006.55 1006.28 1006.04 1005.88 1005.85 1005.98 1006.27 1006.70 1007.22 1007.77 1008.27 1008.68 1008.95 1009.09 1009.09 1009.01 1008.88 1008.76 1008.69 1008.67
1009.38 1009.67 1009.86 1009.97 1010.04 1010.08 1010.13 1010.20 1010.26 1010.31 1010.30 1010.23 1010.06 1009.82 1009.53 1009.21 1008.92 1008.66 1008.47 1008.32 1008.19 1008.06 1007.88 1007.66 1007.37 1007.06 1006.77 1006.54 1006.44 1006.49 1006.70 1007.05 1007.51 1007.99 1008.44 1008.81 1009.04 1009.13 1009.09 1008.97 1008.81 1008.66 1008.56 1008.53
1009.73 1009.92 1010.04 1010.10 1010.15 1010.21 1010.32 1010.47 1010.65 1010.83 1010.95 1010.98 1010.92 1010.75 1010.50 1010.21 1009.91 1009.65 1009.43 1009.27 1009.13 1009.00 1008.83 1008.61 1008.32 1008.00 1007.68 1007.40 1007.23 1007.19 1007.31 1007.57 1007.93 1008.33 1008.71 1009.01 1009.20 1009.26 1009.20 1009.05 1008.88 1008.72 1008.61 1008.57
1010.09 1010.21 1010.26 1010.30 1010.35 1010.46 1010.65 1010.91 1011.23 1011.54 1011.80 1011.97 1012.00 1011.89 1011.67 1011.37 1011.04 1010.73 1010.47 1010.26 1010.09 1009.95 1009.79 1009.58 1009.31 1009.01 1008.68 1008.38 1008.15 1008.04 1008.06 1008.21 1008.47 1008.77 1009.07 1009.31 1009.46 1009.49 1009.42 1009.27 1009.09 1008.92 1008.80 1008.75
1010.50 1010.56 1010.58 1010.59 1010.66 1010.82 1011.10 1011.48 1011.93 1012.39 1012.79 1013.07 1013.20 1013.15 1012.95 1012.63 1012.25 1011.86 1011.52 1011.24 1011.02 1010.84 1010.68 1010.49 1010.26 1009.98 1009.67 1009.37 1009.11 1008.93 1008.87 1008.92 1009.07 1009.27 1009.49 1009.67 1009.78 1009.80 1009.72 1009.57 1009.39 1009.22 1009.09 1009.01
1010.99 1011.01 1010.99 1010.99 1011.06 1011.26 1011.60 1012.07 1012.64 1013.23 1013.76 1014.17 1014.39 1014.40 1014.21 1013.86 1013.42 1012.95 1012.52 1012.15 1011.85 1011.63 1011.45 1011.28 1011.08 1010.84 1010.56 1010.27 1010.00 1009.78 1009.64 1009.60 1009.65 1009.76 1009.90 1010.03 1010.10 1010.10 1010.03 1009.89 1009.71 1009.53 1009.37 1009.26
1011.58 1011.56 1011.51 1011.47 1011.52 1011.71 1012.07 1012.59 1013.23 1013.92 1014.56 1015.07 1015.39 1015.47 1015.31 1014.95 1014.47 1013.92 1013.39 1012.93 1012.56 1012.28 1012.07 1011.90 1011.73 1011.52 1011.28 1011.02 1010.74 1010.49 1010.30 1010.19 1010.15 1010.18 1010.24 1010.31 1010.36 1010.34 1010.27 1010.13 1009.96 1009.76 1009.58 1009.43
1012.27 1012.22 1012.11 1012.01 1011.99 1012.12 1012.44 1012.95 1013.61 1014.35 1015.06 1015.66 1016.07 1016.22 1016.12 1015.79 1015.29 1014.70 1014.10 1013.56 1013.11 1012.77 1012.53 1012.35 1012.19 1012.01 1011.80 1011.56 1011.30 1011.03 1010.80 1010.62 1010.51 1010.46 1010.46 1010.48 1010.49 1010.46 1010.39 1010.26 1010.08 1009.88 1009.67 1009.48
1013.05 1012.96 1012.78 1012.58 1012.45 1012.47 1012.68 1013.11 1013.73 1014.45 1015.20 1015.86 1016.35 1016.59 1016.57 1016.30 1015.83 1015.24 1014.62 1014.03 1013.53 1013.13 1012.85 1012.65 1012.48 1012.32 1012.14 1011.91 1011.65 1011.38 1011.11 1010.88 1010.71 1010.59 1010.53 1010.50 1010.48 1010.44 1010.37 1010.25 1010.08 1009.88 1009.66 1009.45
1013.89 1013.76 1013.50 1013.18 1012.91 1012.77 1012.82 1013.11 1013.63 1014.29 1015.02 1015.71 1016.27 1016.60 1016.68 1016.50 1016.11 1015.57 1014.96 1014.36 1013.83 1013.41 1013.08 1012.86 1012.68 1012.52 1012.34 1012.12 1011.86 1011.58 1011.28 1011.01 1010.78 1010.61 1010.50 1010.42 1010.37 1010.32 1010.25 1010.15 1010.00 1009.81 1009.60 1009.38
1014.72 1014.55 1014.22 1013.79 1013.37 1013.05 1012.92 1013.04 1013.41 1013.97 1014.64 1015.33 1015.93 1016.35 1016.54 1016.47 1016.19 1015.73 1015.18 1014.61 1014.09 1013.64 1013.29 1013.03 1012.83 1012.65 1012.46 1012.24 1011.98 1011.68 1011.36 1011.06 1010.79 1010.57 1010.41 1010.30 1010.22 1010.17 1010.10 1010.01 1009.89 1009.73 1009.55 1009.35
1015.47 1015.30 1014.91 1014.39 1013.84 1013.36 1013.06 1013.00 1013.20 1013.63 1014.21 1014.87 1015.48 1015.97 1016.26 1016.32 1016.15 1015.81 1015.35 1014.83 1014.33 1013.88 1013.52 1013.23 1012.99 1012.78 1012.57 1012.33 1012.06 1011.74 1011.41 1011.08 1010.77 1010.52 1010.32 1010.19 1010.09 1010.03 1009.98 1009.91 1009.82 1009.70 1009.55 1009.39
1016.07 1015.91 1015.51 1014.95 1014.32 1013.73 1013.29 1013.07 1013.12 1013.41 1013.89 1014.48 1015.09 1015.61 1015.99 1016.15 1016.10 1015.88 1015.51 1015.07 1014.60 1014.17 1013.78 1013.46 1013.19 1012.94 1012.69 1012.43 1012.13 1011.80 1011.45 1011.11 1010.79 1010.51 1010.30 1010.14 1010.04 1009.98 1009.93 1009.88 1009.82 1009.74 1009.63 1009.50
1016.46 1016.34 1015.97 1015.42 1014.78 1014.15 1013.63 1013.31 1013.24 1013.41 1013.79 1014.31 1014.88 1015.41 1015.82 1016.07 1016.12 1015.99 1015.71 1015.34 1014.91 1014.48 1014.08 1013.73 1013.41 1013.11 1012.82 1012.52 1012.20 1011.86 1011.51 1011.16 1010.84 1010.56 1010.34 1010.18 1010.07 1010.01 1009.97 1009.94 1009.89 1009.83 1009.75 1009.65
1016.59 1016.53 1016.23 1015.76 1015.18 1014.58 1014.06 1013.71 1013.56 1013.65 1013.94 1014.39 1014.90 1015.41 1015.84 1016.12 1016.23 1016.17 1015.96 1015.64 1015.24 1014.81 1014.39 1013.99 1013.62 1013.27 1012.93 1012.60 1012.25 1011.90 1011.55 1011.21 1010.91 1010.64 1010.44 1010.28 1010.18 1010.12 1010.08 1010.05 1010.01 1009.95 1009.88 1009.78
1016.46 1016.47 1016.28 1015.93 1015.47 1014.98 1014.54 1014.21 1014.07 1014.12 1014.35 1014.72 1015.17 1015.63 1016.03 1016.31 1016.44 1016.41 1016.23 1015.93 1015.54 1015.10 1014.65 1014.20 1013.77 1013.37 1012.98 1012.61 1012.25 1011.89 1011.56 1011.24 1010.96 1010.73 1010.55 1010.41 1010.32 1010.26 1010.22 1010.17 1010.12 1010.04 1009.95 1009.84
1016.13 1016.20 1016.12 1015.92 1015.63 1015.29 1014.98 1014.75 1014.65 1014.71 1014.91 1015.22 1015.60 1016.00 1016.34 1016.59 1016.70 1016.66 1016.47 1016.17 1015.76 1015.30 1014.80 1014.30 1013.82 1013.36 1012.92 1012.52 1012.14 1011.79 1011.48 1011.20 1010.96 1010.77 1010.63 1010.52 1010.44 1010.39 1010.33 1010.26 1010.17 1010.07 1009.93 1009.79
1015.69 1015.79 1015.82 1015.76 1015.64 1015.49 1015.34 1015.25 1015.23 1015.32 1015.52 1015.79 1016.10 1016.42 1016.69 1016.87 1016.93 1016.85 1016.63 1016.29 1015.86 1015.36 1014.82 1014.27 1013.73 1013.22 1012.74 1012.31 1011.93 1011.59 1011.30 1011.07 1010.88 1010.74 1010.64 1010.57 1010.51 1010.45 1010.38 1010.29 1010.16 1010.01 1009.83 1009.64
1015.24 1015.35 1015.45 1015.52 1015.55 1015.57 1015.59 1015.64 1015.73 1015.87 1016.07 1016.31 1016.56 1016.80 1016.99 1017.08 1017.06 1016.92 1016.66 1016.28 1015.81 1015.26 1014.68 1014.09 1013.50 1012.95 1012.45 1012.00 1011.61 1011.29 1011.04 1010.85 1010.71 1010.62 1010.57 1010.53 1010.49 1010.44 1010.35 1010.23 1010.08 1009.88 1009.66 1009.43
1014.87 1014.95 1015.09 1015.24 1015.40 1015.56 1015.73 1015.90 1016.09 1016.29 1016.50 1016.71 1016.90 1017.06 1017.15 1017.16 1017.06 1016.85 1016.53 1016.10 1015.59 1015.01 1014.40 1013.77 1013.16 1012.59 1012.07 1011.62 1011.24 1010.94 1010.72 1010.57 1010.48 1010.43 1010.42 1010.41 1010.39 1010.34 1010.25 1010.11 1009.93 1009.70 1009.45 1009.19
1014.63 1014.67 1014.80 1014.99 1015.23 1015.50 1015.77 1016.04 1016.30 1016.54 1016.76 1016.94 1017.07 1017.15 1017.16 1017.07 1016.89 1016.62 1016.24 1015.77 1015.23 1014.64 1014.01 1013.37 1012.75 1012.17 1011.65 1011.20 1010.84 1010.56 1010.37 1010.25 1010.20 1010.19 1010.20 1010.21 1010.21 1010.16 1010.06 1009.92 1009.72 1009.48 1009.22 1008.95
1014.52 1014.50 1014.61 1014.81 1015.10 1015.42 1015.76 1016.09 1016.39 1016.65 1016.85 1017.00 1017.07 1017.07 1016.99 1016.83 1016.58 1016.24 1015.82 1015.33 1014.77 1014.17 1013.55 1012.92 1012.31 1011.74 1011.24 1010.81 1010.46 1010.20 1010.03 1009.94 1009.91 1009.91 1009.94 1009.96 1009.96 1009.91 1009.82 1009.67 1009.47 1009.23 1008.97 1008.72
1014.49 1014.42 1014.50 1014.70 1014.99 1015.34 1015.71 1016.06 1016.38 1016.63 1016.81 1016.90 1016.91 1016.84 1016.69 1016.46 1016.15 1015.77 1015.32 1014.81 1014.26 1013.67 1013.06 1012.46 1011.87 1011.33 1010.85 1010.44 1010.12 1009.88 1009.72 1009.64 1009.61 1009.62 1009.64 1009.66 1009.65 1009.60 1009.50 1009.35 1009.16 1008.93 1008.69 1008.46
1014.46 1014.37 1014.43 1014.63 1014.92 1015.27 1015.64 1015.99 1016.29 1016.52 1016.65 1016.70 1016.65 1016.51 1016.30 1016.01 1015.65 1015.24 1014.78 1014.27 1013.72 1013.15 1012.58 1012.00 1011.45 1010.94 1010.49 1010.11 1009.80 1009.57 1009.42 1009.33 1009.30 1009.30 1009.31 1009.31 1009.29 1009.23 1009.12 1008.97 1008.79 1008.58 1008.36 1008.14
Thickness
5798 5787 5780 5787 5792 5790 5789 5784 5780 5791 5811 5802 5794 5790 5795 5801 5797 5789 5787 5785 5780 5776 5773 5769 5764 5761 5757 5752 5748 5743 5739 5736 5733 5729 5725 5722 5720 5719 5717 5715 5712 5709 5705 5702
5789 5782 5796 5804 5801 5793 5787 5779 5779 5792 5806 5798 5790 5788 5795 5796 5791 5787 5781 5779 5775 5769 5766 5762 5758 5755 5751 5746 5742 5738 5734 5730 5726 5722 5720 5718 5715 5714 5712 5709 5706 5703 5700 5697
5783 5792 5802 5797 5790 5783 5780 5779 5780 5782 5794 5798 5787 5777 5787 5790 5790 5786 5781 5777 5771 5767 5760 5757 5753 5750 5745 5740 5736 5733 5729 5724 5719 5716 5714 5712 5709 5707 5704 5702 5700 5699 5696 5693
5790 5797 5794 5787 5785 5782 5770 5787 5788 5785 5780 5776 5782 5759 5772 5778 5775 5773 5769 5768 5765 5761 5757 5753 5749 5744 5740 5736 5733 5728 5723 5718 5714 5711 5708 5705 5701 5699 5698 5697 5695 5693 5691 5688
5784 5790 5786 5779 5782 5785 5780 5792 5789 5784 5777 5771 5778 5766 5765 5772 5759 5761 5763 5763 5760 5757 5752 5747 5743 5739 5736 5732 5727 5722 5716 5712 5709 5706 5703 5698 5696 5695 5694 5692 5689 5687 5685 5683
5788 5796 5790 5784 5790 5790 5788 5785 5784 5785 5776 5755 5766 5758 5747 5756 5752 5755 5758 5757 5755 5751 5747 5742 5738 5734 5729 5726 5721 5715 5709 5704 5702 5699 5697 5693 5691 5689 5686 5685 5682 5680 5679 5677
5772 5784 5791 5790 5777 5783 5778 5761 5743 5736 5740 5743 5765 5756 5742 5758 5761 5758 5753 5751 5748 5743 5739 5734 5730 5726 5721 5717 5713 5709 5703 5698 5696 5694 5691 5688 5686 5683 5681 5678 5676 5675 5673 5670
5748 5757 5778 5786 5775 5763 5765 5758 5732 5711 5717 5736 5754 5744 5743 5760 5760 5757 5753 5747 5741 5736 5732 5728 5725 5720 5715 5711 5708 5703 5698 5694 5691 5688 5685 5683 5681 5678 5676 5674 5672 5670 5669 5666
5739 5748 5778 5784 5787 5776 5759 5755 5760 5740 5737 5732 5741 5743 5745 5754 5748 5745 5742 5739 5734 5729 5726 5722 5719 5715 5710 5706 5701 5697 5692 5688 5685 5683 5680 5678 5675 5672 5671 5669 5666 5664 5663 5662
5748 5740 5764 5780 5785 5785 5777 5766 5750 5732 5713 5709 5724 5730 5722 5727 5730 5732 5731 5727 5727 5724 5719 5716 5712 5709 5705 5701 5697 5692 5688 5683 5680 5678 5675 5674 5671 5669 5667 5664 5661 5660 5658 5657
5754 5737 5747 5760 5759 5758 5762 5757 5746 5733 5727 5709 5702 5713 5734 5728 5727 5726 5724 5722 5718 5716 5711 5708 5705 5702 5698 5695 5691 5686 5682 5678 5675 5673 5671 5669 5667 5665 5664 5661 5658 5656 5655 5653
5748 5738 5730 5743 5762 5771 5763 5753 5744 5720 5716 5717 5707 5708 5738 5730 5725 5721 5716 5713 5713 5710 5706 5702 5698 5694 5691 5688 5684 5680 5677 5674 5671 5670 5668 5665 5664 5661 5659 5657 5655 5653 5651 5649
5737 5724 5713 5725 5740 5752 5747 5748 5747 5739 5727 5718 5704 5705 5728 5723 5716 5713 5708 5704 5703 5702 5699 5695 5692 5689 5685 5681 5678 5675 5673 5670 5668 5666 5663 5660 5659 5657 5655 5654 5652 5650 5647 5645
5737 5723 5711 5702 5714 5732 5734 5740 5743 5734 5719 5712 5711 5709 5712 5708 5703 5702 5701 5697 5695 5694 5692 5688 5685 5683 5679 5676 5672 5670 5668 5666 5664 5661 5658 5655 5654 5654 5653 5651 5649 5646 5644 5642
5731 5718 5720 5725 5734 5738 5737 5737 5737 5730 5723 5711 5708 5706 5702 5701 5698 5696 5693 5691 5688 5685 5684 5682 5679 5676 5672 5670 5668 5665 5663 5661 5659 5656 5654 5652 5652 5652 5650 5648 5646 5644 5641 5640
5723 5712 5714 5717 5731 5733 5730 5732 5730 5725 5721 5715 5710 5702 5705 5703 5699 5692 5687 5683 5680 5677 5676 5674 5671 5669 5666 5664 5663 5661 5658 5656 5654 5652 5651 5650 5650 5649 5647 5645 5643 5641 5638 5636
5714 5705 5700 5704 5720 5719 5710 5721 5721 5717 5717 5711 5697 5696 5699 5693 5689 5684 5681 5678 5674 5671 5670 5666 5664 5662 5660 5659 5658 5656 5654 5652 5650 5649 5648 5648 5647 5645 5643 5642 5640 5637 5635 5632
5708 5701 5698 5698 5699 5684 5706 5725 5720 5712 5709 5706 5699 5696 5692 5688 5685 5682 5679 5673 5669 5668 5667 5664 5661 5659 5657 5656 5654 5652 5651 5648 5646 5646 5645 5644 5642 5642 5640 5638 5636 5634 5631 5629
5714 5698 5691 5689 5685 5690 5706 5710 5708 5699 5693 5695 5689 5688 5687 5686 5681 5677 5676 5671 5666 5666 5664 5661 5659 5656 5654 5652 5650 5648 5647 5646 5644 5643 5641 5641 5640 5638 5637 5635 5633 5631 5629 5626
5712 5701 5685 5681 5673 5669 5687 5703 5709 5698 5681 5686 5683 5679 5677 5676 5665 5665 5670 5667 5665 5663 5661 5658 5656 5653 5649 5647 5646 5644 5642 5642 5641 5641 5640 5639 5637 5636 5635 5633 5632 5630 5628 5626
5692 5688 5680 5676 5673 5680 5690 5700 5699 5672 5665 5678 5677 5673 5669 5665 5662 5664 5666 5663 5661 5659 5657 5655 5653 5649 5646 5644 5642 5639 5639 5639 5640 5640 5639 5638 5636 5635 5634 5633 5631 5630 5628 5625
5686 5679 5677 5676 5667 5669 5687 5686 5674 5668 5676 5675 5672 5670 5665 5664 5664 5663 5660 5658 5656 5654 5652 5650 5647 5644 5643 5641 5638 5637 5636 5637 5639 5638 5637 5636 5636 5635 5635 5632 5630 5629 5626 5623
5687 5682 5676 5673 5670 5680 5684 5679 5679 5678 5673 5672 5670 5668 5664 5661 5659 5657 5655 5653 5652 5650 5648 5646 5643 5641 5639 5639 5637 5635 5636 5637 5637 5636 5636 5635 5635 5635 5634 5632 5629 5627 5625 5622
5684 5685 5676 5671 5675 5678 5678 5678 5677 5674 5671 5671 5669 5665 5662 5658 5656 5654 5651 5649 5648 5647 5646 5644 5642 5638 5637 5637 5638 5637 5638 5638 5637 5636 5634 5634 5633 5633 5633 5631 5630 5627 5625 5621
5670 5671 5665 5662 5666 5669 5671 5668 5668 5669 5669 5667 5667 5664 5659 5656 5653 5651 5649 5647 5646 5645 5644 5643 5640 5638 5637 5637 5638 5638 5639 5639 5637 5635 5634 5634 5634 5633 5632 5630 5628 5627 5624 5621
5668 5663 5656 5654 5660 5656 5657 5663 5665 5662 5662 5661 5660 5660 5658 5656 5653 5651 5648 5647 5645 5645 5644 5642 5640 5639 5639 5638 5638 5639 5640 5640 5637 5635 5634 5634 5634 5634 5633 5631 5628 5626 5623 5619